Content
SEND FEEDBACK

Daily
Averages
Monthly
Summary
United States of America

ROCK HILL, NEW YORK


Home > North America > United States > New York
Elevation: 1260 feet     Latitude: 41 35N     Longitude: 074 37W

WEATHER
 
SELECT A DAY
Number of Records: 454,653;   Date Range: 1/1/95 - 12/18/14
 
SHARE

PRINT THIS DATA

[ ← Previous Day ]
WEATHER ALMANAC - DECEMBER 15, 2013
[ Next Day → ]
[ °C ]   °F
Weather ElementAverageHighLow
Temperature24.1 °F28.4 °F (11:15 am) (6:15 am)
Dewpoint17.1 °F23 °F (11:35 am) (7:00 pm)
Humidity74.4 %86 % (1:55 am)59 % (9:35 pm)
Barometer29.63 in29.77 in (12:35 am)29.52 in (5:55 am)
Wind Speed10.5 mph23 mph (2:55 am)
Wind Gust32.2 mph (1:55 am)
Weather ElementAverage
Visibility8.1 mi
Wind DirectionS (177.2 °)

Weather ElementTotal
Precipitation---
Heating Degree Days50.8 (Base 65)
Averaged from 71 records on December 15, 2013
WEATHER CONDITIONS BREAKOUT
WIND DIRECTION BREAKOUT
WEATHER BY HOUR - DECEMBER 15, 2013
[ °C ]   °F
Local TimeTemperatureDewpointHumidityBarometerVisibilityWind DirectionWind SpeedGust SpeedPrecipitationEventsConditions
12:35 AM17.6 °F12.2 °F79 %29.77 in2.0 miENE (70°)16.1 mph23.0 mphOvercast
12:55 AM17.6 °F12.2 °F79 %29.72 in2.0 miEast (80°)19.6 mph25.3 mphOvercast
1:15 AM17.6 °F12.2 °F79 %29.72 in1.8 miEast (80°)17.3 mph27.6 mphOvercast
1:35 AM19.4 °F14.0 °F80 %29.69 in2.5 miEast (80°)20.7 mph26.5 mphOvercast
1:55 AM19.4 °F15.8 °F86 %29.67 in2.0 miENE (70°)19.6 mph32.2 mphOvercast
2:15 AM21.2 °F15.8 °F80 %29.62 in2.5 miEast (80°)19.6 mph28.8 mphMostly Cloudy
2:35 AM21.2 °F15.8 °F80 %29.66 in2.5 miESE (110°)12.7 mph20.7 mphOvercast
2:55 AM21.2 °F15.8 °F80 %29.63 in4.0 miEast (80°)23.0 mph27.6 mphOvercast
3:15 AM21.2 °F15.8 °F80 %29.62 in5.0 miEast (80°)15.0 mph20.7 mphOvercast
3:35 AM21.2 °F17.6 °F86 %29.60 in5.0 miEast (90°)15.0 mph23.0 mphOvercast
3:55 AM21.2 °F17.6 °F86 %29.59 in6.0 miEast (80°)13.8 mph18.4 mphOvercast
4:15 AM23.0 °F17.6 °F80 %29.57 in9.0 miEast (80°)11.5 mphOvercast
4:35 AM23.0 °F19.4 °F86 %29.56 in10.0 miEast (80°)8.1 mphOvercast
4:55 AM24.8 °F19.4 °F80 %29.55 in10.0 miEast (80°)9.2 mphOvercast
5:15 AM24.8 °F19.4 °F80 %29.54 in10.0 miEast (80°)9.2 mphOvercast
5:35 AM24.8 °F19.4 °F80 %29.54 in10.0 miEast (90°)11.5 mph16.1 mphOvercast
5:55 AM24.8 °F19.4 °F80 %29.52 in10.0 miEast (90°)11.5 mphOvercast
6:15 AM0.0 °F0.0 °FNorthOvercast
6:35 AM0.0 °F0.0 °FNorth
6:55 AM0.0 °F0.0 °FNorth
7:15 AM24.8 °F21.2 °F86 %29.53 in3.0 miCalm
7:35 AM24.8 °F21.2 °F86 %29.54 in1.8 miCalmOvercast
7:55 AM24.8 °F21.2 °F86 %29.54 in2.5 miCalmOvercast
8:15 AM24.8 °F21.2 °F86 %29.55 in2.5 miCalmOvercast
8:35 AM24.8 °F19.4 °F80 %29.55 in2.0 miCalmOvercast
8:55 AM24.8 °F19.4 °F80 %29.55 in1.8 miCalmOvercast
9:15 AM24.8 °F19.4 °F80 %29.55 in2.5 miCalmOvercast
9:35 AM24.8 °F19.4 °F80 %29.53 in10.0 miCalmOvercast
9:55 AM24.8 °F19.4 °F80 %29.53 in10.0 miCalmOvercast
10:15 AM26.6 °F21.2 °F80 %29.54 in10.0 miCalmOvercast
10:35 AM26.6 °F21.2 °F80 %29.54 in10.0 miCalmOvercast
10:55 AM26.6 °F21.2 °F80 %29.54 in10.0 miWest (280°)12.7 mph20.7 mphOvercast
11:15 AM28.4 °F21.2 °F74 %29.54 in10.0 miWNW (290°)11.5 mph20.7 mphOvercast
11:35 AM28.4 °F23.0 °F80 %29.54 in10.0 miWNW (290°)12.7 mph18.4 mphOvercast
11:55 AM28.4 °F23.0 °F80 %29.54 in10.0 miWNW (290°)19.6 mph25.3 mphOvercast
12:15 PM28.4 °F23.0 °F80 %29.55 in10.0 miWNW (290°)15.0 mph28.8 mphOvercast
12:35 PM28.4 °F21.2 °F74 %29.56 in10.0 miWNW (290°)13.8 mph20.7 mphOvercast
12:55 PM28.4 °F21.2 °F74 %29.57 in10.0 miWNW (290°)15.0 mph27.6 mphOvercast
1:15 PM28.4 °F21.2 °F74 %29.57 in10.0 miWNW (300°)13.8 mph25.3 mphOvercast
1:35 PM28.4 °F21.2 °F74 %29.58 in10.0 miWNW (300°)12.7 mph18.4 mphOvercast
1:55 PM28.4 °F21.2 °F74 %29.59 in10.0 miWNW (300°)12.7 mph19.6 mphOvercast
2:15 PM28.4 °F19.4 °F69 %29.59 in10.0 miNW (310°)10.4 mph16.1 mphOvercast
2:35 PM28.4 °F19.4 °F69 %29.59 in10.0 miWNW (290°)17.3 mph23.0 mphOvercast
2:55 PM28.4 °F21.2 °F74 %29.61 in10.0 miWNW (290°)12.7 mph19.6 mphOvercast
3:15 PM28.4 °F19.4 °F69 %29.62 in10.0 miWNW (300°)15.0 mph21.9 mphOvercast
3:35 PM28.4 °F19.4 °F69 %29.63 in10.0 miWNW (290°)17.3 mph24.2 mphMostly Cloudy
3:55 PM28.4 °F17.6 °F64 %29.64 in10.0 miWNW (300°)18.4 mph28.8 mphMostly Cloudy
4:15 PM26.6 °F17.6 °F69 %29.65 in10.0 miWNW (300°)16.1 mph24.2 mphMostly Cloudy
4:35 PM26.6 °F17.6 °F69 %29.66 in10.0 miWNW (300°)11.5 mph20.7 mphMostly Cloudy
4:55 PM26.6 °F17.6 °F69 %29.67 in10.0 miWNW (290°)9.2 mph16.1 mphMostly Cloudy
5:15 PM26.6 °F17.6 °F69 %29.67 in10.0 miWNW (300°)8.1 mphMostly Cloudy
5:35 PM24.8 °F17.6 °F74 %29.68 in10.0 miWNW (290°)9.2 mphPartly Cloudy
5:55 PM24.8 °F15.8 °F69 %29.68 in10.0 miWNW (290°)9.2 mphClear
6:15 PM24.8 °F15.8 °F69 %29.68 in10.0 miWNW (290°)11.5 mph16.1 mphClear
6:35 PM24.8 °F15.8 °F69 %29.69 in10.0 miWNW (290°)10.4 mphClear
6:55 PM24.8 °F15.8 °F69 %29.69 in10.0 miWest (280°)6.9 mphPartly Cloudy
7:15 PM23.0 °F15.8 °F74 %29.70 in10.0 miWest (260°)5.8 mphClear
7:35 PM23.0 °F15.8 °F74 %29.71 in10.0 miWSW (250°)4.6 mphMostly Cloudy
7:55 PM24.8 °F15.8 °F69 %29.71 in10.0 miWest (260°)8.1 mphOvercast
8:15 PM24.8 °F15.8 °F69 %29.71 in10.0 miWSW (240°)6.9 mphOvercast
8:35 PM24.8 °F15.8 °F69 %29.72 in10.0 miWSW (240°)4.6 mphOvercast
8:55 PM24.8 °F15.8 °F69 %29.72 in10.0 miWSW (250°)8.1 mphOvercast
9:15 PM26.6 °F15.8 °F64 %29.72 in10.0 miWSW (250°)10.4 mph16.1 mphOvercast
9:35 PM26.6 °F14.0 °F59 %29.72 in10.0 miWest (260°)9.2 mph16.1 mphOvercast
9:55 PM26.6 °F14.0 °F59 %29.72 in10.0 miWest (270°)11.5 mph18.4 mphOvercast
10:15 PM26.6 °F14.0 °F59 %29.73 in10.0 miWest (260°)10.4 mph18.4 mphOvercast
10:35 PM26.6 °F14.0 °F59 %29.72 in10.0 miWest (270°)11.5 mph18.4 mphOvercast
10:55 PM26.6 °F14.0 °F59 %29.73 in10.0 miWest (270°)9.2 mph16.1 mphOvercast
11:15 PM26.6 °F14.0 °F59 %29.73 in10.0 miWest (260°)10.4 mph18.4 mphOvercast
11:35 PM26.6 °F15.8 °F64 %29.73 in10.0 miWSW (250°)12.7 mph16.1 mphOvercast
11:55 PM26.6 °F15.8 °F64 %29.72 in10.0 miWest (260°)11.5 mph17.3 mphOvercast
Hourly data recorded from KMSV, located miles away from Rock Hill, New York







STORIES FROM OUR PARTNERS